Location: Stull Observatory
(42.2506°N, 77.7903°W)
Time: 17:30:00
(UTC-04:00)

Okean O Rocket - Visible Passes

Search period start: 26 April 2017 00:00
Search period end: 06 May 2017 00:00
Orbit: 624 x 644 km, 98.1° (Epoch: 25 April)

Date Brightness Start Highest point End Pass type
(mag) Time Alt. Az. Time Alt. Az. Time Alt. Az.
26 Apr 3.9 04:09:27 10° NE 04:12:51 21° E 04:16:14 10° SE visible
27 Apr 3.1 04:30:35 10° NNE 04:34:40 35° E 04:38:43 10° SSE visible
28 Apr 2.1 04:52:00 10° NNE 04:56:25 61° E 05:00:46 10° S visible
29 Apr 1.6 05:13:39 10° N 05:18:05 78° WNW 05:22:29 10° SSW visible
30 Apr 4.2 04:00:13 10° NE 04:03:06 17° E 04:05:56 10° SE visible
30 Apr 2.0 05:35:28 10° N 05:39:42 45° WNW 05:43:53 10° SW visible
01 May 3.5 04:21:07 10° NE 04:24:56 28° E 04:28:43 10° SSE visible
02 May 2.6 04:42:26 10° NNE 04:46:43 47° E 04:50:56 10° S visible
03 May 1.7 05:03:58 10° NNE 05:08:26 82° ESE 05:12:48 10° S visible
04 May 4.3 03:51:13 10° ENE 03:53:18 13° E 03:55:23 10° ESE visible
04 May 1.8 05:25:42 10° N 05:30:04 58° WNW 05:34:21 10° SSW visible
05 May 3.8 04:11:44 10° NE 04:15:11 22° E 04:18:35 10° SE visible
